{"data":{"norad_id":60471,"epoch":"2026-09-19T12:18:42.553728Z","epoch_age_seconds":99951,"freshness":"FRESH","line1":"1 60471U 24149D   26262.51299252  .00007829  00000+0  21325-3 0  9992","line2":"2 60471  97.3743 344.8885 0000671 190.6066 169.5165 15.37766591116657","mean_motion":15.37766591,"eccentricity":6.71e-5,"inclination_deg":97.3743,"raan_deg":344.8885,"arg_perigee_deg":190.6066,"mean_anomaly_deg":169.5165,"bstar":0.00021325,"rev_number":11665,"period_min":93.64229971101,"perigee_km":452.25693182027,"apogee_km":453.17363219652,"semimajor_km":6830.8522820084,"source":"CELESTRAK","updated_at":"2026-09-20T09:00:34.871035Z"}}